Time,TemperatureF,DewpointF,PressureIn,WindDirection,WindDirectionDegrees,WindSpeedMPH,WindSpeedGustMPH,Humidity,HourlyPrecipIn,Conditions,Clouds,dailyrainin,SoftwareType,DateUTC
2013-08-13 00:10:00,65.5,64.9,29.78,NE,45,0.0,-999.0,98,-99.99,,,0.00,Acu-Link.com,2013-08-13 04:10:00,
2013-08-13 00:26:00,65.3,64.7,29.78,NE,45,0.0,-999.0,98,-99.99,,,0.00,Acu-Link.com,2013-08-13 04:26:00,
2013-08-13 00:41:00,65.5,64.9,29.77,NE,45,0.0,-999.0,98,-99.99,,,0.00,Acu-Link.com,2013-08-13 04:41:00,
2013-08-13 00:56:00,65.5,64.9,29.77,NE,45,0.0,-999.0,98,-99.99,,,0.00,Acu-Link.com,2013-08-13 04:56:00,
2013-08-13 01:12:00,65.5,64.9,29.76,NNE,22,0.0,-999.0,98,-99.99,,,0.00,Acu-Link.com,2013-08-13 05:12:00,
2013-08-13 01:29:00,65.5,64.9,29.75,SSW,202,0.0,-999.0,98,-99.99,,,0.00,Acu-Link.com,2013-08-13 05:29:00,
2013-08-13 01:44:00,65.5,64.9,29.74,WSW,247,0.0,-999.0,98,-99.99,,,0.00,Acu-Link.com,2013-08-13 05:44:00,
2013-08-13 02:00:00,65.1,64.5,29.73,North,0,0.0,-999.0,98,-99.99,,,0.00,Acu-Link.com,2013-08-13 06:00:00,
2013-08-13 02:15:00,64.9,64.3,29.73,NW,315,0.0,-999.0,98,-99.99,,,0.00,Acu-Link.com,2013-08-13 06:15:00,
2013-08-13 02:30:00,64.8,64.2,29.72,SSE,157,0.0,-999.0,98,-99.99,,,0.00,Acu-Link.com,2013-08-13 06:30:00,
2013-08-13 02:45:00,64.9,64.3,29.72,NNW,337,0.0,-999.0,98,-99.99,,,0.00,Acu-Link.com,2013-08-13 06:45:00,
2013-08-13 03:00:00,65.1,64.5,29.69,SSE,157,0.0,-999.0,98,-99.99,,,0.00,Acu-Link.com,2013-08-13 07:00:00,
2013-08-13 03:16:00,64.9,64.3,29.69,NNW,337,0.0,-999.0,98,-99.99,,,0.00,Acu-Link.com,2013-08-13 07:16:00,
2013-08-13 03:32:00,64.9,64.3,29.69,North,0,1.1,-999.0,98,-99.99,,,0.00,Acu-Link.com,2013-08-13 07:32:00,
2013-08-13 03:47:00,65.1,64.5,29.67,NE,45,0.0,-999.0,98,-99.99,,,0.00,Acu-Link.com,2013-08-13 07:47:00,
2013-08-13 04:06:00,65.1,64.5,29.67,NNE,22,1.1,-999.0,98,-99.99,,,0.00,Acu-Link.com,2013-08-13 08:06:00,
2013-08-13 04:24:00,65.1,64.5,29.67,NNE,22,0.0,-999.0,98,-99.99,,,0.00,Acu-Link.com,2013-08-13 08:24:00,
2013-08-13 04:39:00,65.3,64.7,29.67,NNE,22,0.0,-999.0,98,-99.99,,,0.00,Acu-Link.com,2013-08-13 08:39:00,
2013-08-13 04:54:00,65.5,64.9,29.66,North,0,0.0,-999.0,98,-99.99,,,0.00,Acu-Link.com,2013-08-13 08:54:00,
2013-08-13 05:10:00,65.5,64.9,29.66,NE,45,0.0,-999.0,98,-99.99,,,0.00,Acu-Link.com,2013-08-13 09:10:00,
2013-08-13 05:25:00,65.5,64.9,29.66,NW,315,0.0,-999.0,98,-99.99,,,0.00,Acu-Link.com,2013-08-13 09:25:00,
2013-08-13 05:40:00,65.5,64.9,29.66,ESE,112,0.0,-999.0,98,-99.99,,,0.00,Acu-Link.com,2013-08-13 09:40:00,
2013-08-13 05:55:00,65.5,64.9,29.66,NNE,22,0.0,-999.0,98,-99.99,,,0.00,Acu-Link.com,2013-08-13 09:55:00,
2013-08-13 06:11:00,65.5,64.9,29.66,SSE,157,0.0,-999.0,98,-99.99,,,0.00,Acu-Link.com,2013-08-13 10:11:00,
2013-08-13 06:28:00,65.5,64.9,29.66,WSW,247,0.0,-999.0,98,-99.99,,,0.00,Acu-Link.com,2013-08-13 10:28:00,
2013-08-13 06:43:00,65.3,64.7,29.67,WSW,247,1.7,-999.0,98,-99.99,,,0.00,Acu-Link.com,2013-08-13 10:43:00,
2013-08-13 06:58:00,65.5,64.9,29.66,South,180,1.7,-999.0,98,-99.99,,,0.00,Acu-Link.com,2013-08-13 10:58:00,
2013-08-13 07:14:00,65.5,64.9,29.66,ENE,67,2.2,-999.0,98,-99.99,,,0.00,Acu-Link.com,2013-08-13 11:14:00,
2013-08-13 07:29:00,65.5,64.9,29.67,West,270,0.0,-999.0,98,-99.99,,,0.00,Acu-Link.com,2013-08-13 11:29:00,
2013-08-13 07:44:00,65.7,65.1,29.67,WSW,247,0.0,-999.0,98,-99.99,,,0.00,Acu-Link.com,2013-08-13 11:44:00,